Watsonville, CA

2:41 PM PDT on May 22, 2017 (GMT -0700)
Watsonville Municipal

Weather History for KWVI - March, 2013

Change the Weather History Date:

Friday, March 15, 2013

  Actual Average Record
Temperature  
Mean Temperature 57 °F 53 °F  
Max Temperature 71 °F 63 °F 78 °F (2004)
Min Temperature 43 °F 44 °F 34 °F (2002)
Degree Days  
Heating Degree Days 8    
Month to date heating degree days 182  
Since 1 July heating degree days 2355  
Cooling Degree Days 0    
Month to date cooling degree days 0  
Year to date cooling degree days 0  
Growing Degree Days 7 (Base 50)    
Moisture  
Dew Point 46 °F    
Average Humidity 74    
Maximum Humidity 93    
Minimum Humidity 55    
Precipitation  
Precipitation 0.00 in - 1.11 in (1952)
Month to date precipitation 0.36  
Year to date precipitation 1.51  
Since 1 July precipitation 12.45  
Sea Level Pressure  
Sea Level Pressure 30.10 in    
Wind  
Wind Speed 2 mph (West)    
Max Wind Speed 23 mph    
Max Gust Speed 63 mph    
Visibility 10 miles    
Events      
T = Trace of Precipitation, MM = Missing Value Source: NWS Daily Summary

Daily Weather History Graph

Daily Weather History Graph

Search for Another Location

Airport or City:

Trip Planner

Search our weather history database for the weather conditions in past years. The results will help you decide how hot, cold, wet, or windy it might be!

Date:

Astronomy

Mar. 15, 2013 Rise Set
Actual Time 7:17 AM PDT 7:14 PM PDT
Civil Twilight 6:51 AM PDT 7:40 PM PDT
Nautical Twilight 6:21 AM PDT 8:10 PM PDT
Astronomical Twilight 5:51 AM PDT 8:41 PM PDT
Moon 9:17 AM PDT (3/15) 11:26 PM PDT (3/15)
Length of Visible Light 12h 48m
Length of Day
11h 57m
Waxing Crescent, 16% of the Moon is Illuminated
Mar 15
Waxing Crescent
Mar 19
First Quarter
Mar 27
Full
Apr 2
Last Quarter
Apr 10
New

Hourly Weather History & Observations

Time (PDT) Temp. Windchill Dew Point Humidity Pressure Visibility Wind Dir Wind Speed Gust Speed Precip Events Conditions
12:53 AM 51.1 °F - 48.0 °F 89% 30.12 in 9.0 mi Calm Calm - N/A   Clear
1:53 AM 50.0 °F - 46.9 °F 89% 30.12 in 10.0 mi NW 4.6 mph - N/A   Clear
2:53 AM 48.0 °F - 46.0 °F 93% 30.13 in 10.0 mi Calm Calm - N/A   Clear
3:53 AM 46.9 °F - 44.1 °F 90% 30.12 in 10.0 mi Calm Calm - N/A   Clear
5:51 AM 44.6 °F 42.2 °F 42.8 °F 93% 30.12 in 10.0 mi NW 4.6 mph - N/A   Scattered Clouds
5:53 AM 45.0 °F 42.6 °F 42.1 °F 90% 30.12 in 10.0 mi NW 4.6 mph - N/A   Scattered Clouds
6:53 AM 44.1 °F 42.5 °F 42.1 °F 93% 30.11 in 10.0 mi NW 3.5 mph - N/A   Clear
7:53 AM 45.0 °F 42.6 °F 43.0 °F 93% 30.11 in 10.0 mi West 4.6 mph - N/A   Clear
8:53 AM 51.1 °F - 46.0 °F 83% 30.11 in 10.0 mi Calm Calm - N/A   Clear
9:53 AM 55.0 °F - 46.0 °F 72% 30.13 in 10.0 mi Calm Calm - N/A   Clear
10:53 AM 60.1 °F - 45.0 °F 57% 30.12 in 10.0 mi Calm Calm - N/A   Clear
11:53 AM 61.0 °F - 48.0 °F 62% 30.11 in 10.0 mi Variable 4.6 mph - N/A   Clear
12:53 PM 66.0 °F - 51.1 °F 59% 30.09 in 10.0 mi Variable 4.6 mph - N/A   Clear
1:53 PM 70.0 °F - 48.9 °F 47% 30.07 in 10.0 mi Calm Calm - N/A   Clear
2:53 PM 63.0 °F - 45.0 °F 52% 30.07 in 10.0 mi WSW 9.2 mph - N/A   Clear
3:53 PM 66.0 °F - 42.1 °F 42% 30.06 in 10.0 mi Calm Calm - N/A   Clear
4:53 PM 64.9 °F - 45.0 °F 48% 30.06 in 10.0 mi SE 4.6 mph - N/A   Clear
5:53 PM 60.1 °F - 51.1 °F 72% 30.06 in 10.0 mi SE 6.9 mph - N/A   Clear
6:53 PM 55.9 °F - 50.0 °F 80% 30.07 in 10.0 mi South 6.9 mph - N/A   Clear
7:53 PM 54.0 °F - 48.9 °F 83% 30.07 in 10.0 mi Calm Calm - N/A   Clear
8:53 PM 54.0 °F - 48.0 °F 80% 30.07 in 10.0 mi Calm Calm - N/A   Clear
9:53 PM 52.0 °F - 46.9 °F 83% 30.08 in 10.0 mi Calm Calm - N/A   Clear
10:53 PM 50.0 °F - 46.9 °F 89% 30.10 in 9.0 mi West 3.5 mph - N/A   Clear
11:53 PM 48.9 °F - 46.0 °F 90% 30.09 in 9.0 mi Calm Calm - N/A   Clear